TimeEDT,TemperatureF,Dew PointF,Humidity,Sea Level PressureIn,VisibilityMPH,Wind Direction,Wind SpeedMPH,Gust SpeedMPH,PrecipitationIn,Events,Conditions,WindDirDegrees,DateUTC
1:39 AM,24.8,21.2,86,30.08,1.0,Variable,4.6,-,0.06,Snow,Light Snow,0,2013-03-19 05:39:00
2:01 AM,24.8,21.2,86,30.07,0.8,Calm,Calm,-,0.00,Snow,Light Snow,0,2013-03-19 06:01:00
2:10 AM,24.8,21.2,86,30.06,1.0,Variable,3.5,-,0.01,Snow,Light Snow,0,2013-03-19 06:10:00
2:30 AM,24.8,21.2,86,30.04,0.8,Calm,Calm,-,0.02,Snow,Light Snow,0,2013-03-19 06:30:00
2:52 AM,25.0,23.0,92,30.09,0.5,Calm,Calm,-,0.05,Fog-Snow,Snow,0,2013-03-19 06:52:00
3:23 AM,24.8,21.2,86,30.03,0.8,ENE,4.6,-,0.02,Snow,Light Snow,60,2013-03-19 07:23:00
3:52 AM,25.0,21.9,88,30.08,1.0,Variable,3.5,-,0.05,Snow,Light Snow,0,2013-03-19 07:52:00
4:12 AM,24.8,23.0,93,30.01,0.8,Variable,5.8,-,0.01,Snow,Light Snow,0,2013-03-19 08:12:00
4:29 AM,24.8,23.0,93,30.00,0.5,Variable,4.6,-,0.03,Fog-Snow,Snow,0,2013-03-19 08:29:00
4:52 AM,25.0,23.0,92,30.04,0.5,East,3.5,-,0.07,Fog-Snow,Snow,90,2013-03-19 08:52:00
5:46 AM,26.6,23.0,86,29.98,1.0,Variable,4.6,-,0.06,Snow,Light Snow,0,2013-03-19 09:46:00
6:52 AM,27.0,24.1,89,30.00,1.0,Variable,4.6,-,0.02,Snow,Light Snow,0,2013-03-19 10:52:00
6:54 AM,26.6,24.8,93,29.95,0.8,Variable,4.6,-,0.00,Snow,Light Snow,0,2013-03-19 10:54:00
7:52 AM,27.0,25.0,92,29.97,0.5,Variable,5.8,-,0.03,Fog-Snow,Snow,0,2013-03-19 11:52:00
8:52 AM,28.0,26.1,92,29.94,0.2,Variable,5.8,-,0.04,Fog-Snow,Snow,0,2013-03-19 12:52:00
9:22 AM,28.4,26.6,93,29.88,0.5,Variable,4.6,-,0.02,Fog-Snow,Snow,0,2013-03-19 13:22:00
9:52 AM,28.9,26.1,89,29.93,0.5,Variable,3.5,-,0.04,Fog-Snow,Snow,0,2013-03-19 13:52:00
10:52 AM,30.0,27.0,88,29.89,0.5,Variable,6.9,-,0.07,Fog-Snow,Light Snow,0,2013-03-19 14:52:00
11:37 AM,30.2,28.4,93,29.78,0.8,Variable,6.9,-,0.01,Snow,Light Snow,0,2013-03-19 15:37:00
11:52 AM,30.9,28.0,89,29.84,1.0,Variable,6.9,-,0.01,Snow,Light Snow,0,2013-03-19 15:52:00
11:57 AM,30.2,28.4,93,29.79,1.2,East,8.1,-,0.00,Snow,Light Snow,80,2013-03-19 15:57:00
12:00 PM,30.2,28.4,93,29.78,1.5,Variable,6.9,-,0.00,Snow,Light Snow,0,2013-03-19 16:00:00
12:16 PM,30.2,28.4,93,29.77,1.2,Variable,3.5,24.2,0.00,Snow,Light Snow,0,2013-03-19 16:16:00
12:36 PM,30.2,28.4,93,29.76,1.0,Variable,3.5,-,0.01,Snow,Light Snow,0,2013-03-19 16:36:00
12:49 PM,30.2,28.4,93,29.75,1.0,ENE,8.1,-,0.01,Snow,Light Snow,70,2013-03-19 16:49:00
12:52 PM,30.9,28.0,89,29.80,1.0,Calm,Calm,-,0.01,Snow,Light Snow,0,2013-03-19 16:52:00
1:01 PM,30.2,28.4,93,29.75,1.0,Variable,4.6,-,0.00,Snow,Light Snow,0,2013-03-19 17:01:00
1:13 PM,30.2,28.4,93,29.74,1.2,Variable,3.5,-,0.00,Snow,Light Snow,0,2013-03-19 17:13:00
1:21 PM,30.2,28.4,93,29.75,1.2,Variable,6.9,-,0.00,Snow,Light Snow,0,2013-03-19 17:21:00
1:27 PM,30.2,28.4,93,29.75,1.2,NNE,8.1,-,0.00,Snow,Light Snow,30,2013-03-19 17:27:00
1:45 PM,30.2,28.4,93,29.79,1.0,NNW,4.6,-,0.01,Snow,Light Snow,340,2013-03-19 17:45:00
1:47 PM,30.2,28.4,93,29.79,1.0,North,3.5,-,0.01,Snow,Light Snow,350,2013-03-19 17:47:00
1:52 PM,30.0,28.0,92,29.86,0.8,NNW,3.5,-,0.02,Snow,Light Snow,330,2013-03-19 17:52:00
1:59 PM,30.2,28.4,93,29.80,0.5,Variable,3.5,-,0.03,Fog-Snow,Light Snow,0,2013-03-19 17:59:00
2:29 PM,30.2,28.4,93,29.75,0.2,Variable,5.8,-,0.09,Fog-Snow,Snow,0,2013-03-19 18:29:00
2:52 PM,30.0,28.9,96,29.79,0.2,Variable,3.5,-,0.13,Fog-Snow,Heavy Snow,0,2013-03-19 18:52:00
3:28 PM,28.4,28.4,100,29.65,0.2,NNE,8.1,21.9,0.05,Fog-Snow,Snow,30,2013-03-19 19:28:00
3:52 PM,30.0,28.0,92,29.70,0.8,Variable,5.8,-,0.06,Snow,Light Snow,0,2013-03-19 19:52:00
3:59 PM,30.2,28.4,93,29.65,0.8,Variable,3.5,-,0.00,Snow,Light Snow,0,2013-03-19 19:59:00
4:30 PM,30.2,26.6,86,29.65,1.2,Variable,4.6,-,0.01,Snow,Light Snow,0,2013-03-19 20:30:00
4:33 PM,30.2,26.6,86,29.65,1.5,Variable,4.6,-,0.01,Snow,Light Snow,0,2013-03-19 20:33:00
4:41 PM,30.2,26.6,86,29.65,2.0,Variable,6.9,21.9,0.01,Snow,Light Snow,0,2013-03-19 20:41:00
4:52 PM,30.0,27.0,88,29.70,2.0,Variable,6.9,-,0.01,Snow,Light Snow,0,2013-03-19 20:52:00
5:01 PM,30.2,26.6,86,29.65,1.5,Variable,4.6,20.7,0.00,Snow,Light Snow,0,2013-03-19 21:01:00
5:12 PM,30.2,26.6,86,29.64,1.5,Variable,5.8,18.4,0.00,Snow,Light Snow,0,2013-03-19 21:12:00
5:31 PM,30.2,26.6,86,29.64,2.0,Variable,5.8,-,0.00,Snow,Light Snow,0,2013-03-19 21:31:00
5:41 PM,30.2,26.6,86,29.64,3.0,Variable,4.6,-,0.00,Snow,Light Snow,0,2013-03-19 21:41:00
5:52 PM,30.0,26.1,85,29.69,2.5,NE,8.1,-,0.00,Snow,Light Snow,40,2013-03-19 21:52:00
6:10 PM,28.4,26.6,93,29.64,1.5,Variable,3.5,-,0.00,Snow,Light Snow,0,2013-03-19 22:10:00
6:14 PM,28.4,26.6,93,29.64,1.0,Variable,4.6,-,0.00,Snow,Light Snow,0,2013-03-19 22:14:00
6:22 PM,28.4,26.6,93,29.64,0.8,Variable,4.6,-,0.00,Snow,Light Snow,0,2013-03-19 22:22:00
6:52 PM,28.9,27.0,92,29.70,0.5,Calm,Calm,-,0.01,Fog-Snow,Snow,0,2013-03-19 22:52:00
7:10 PM,28.4,26.6,93,29.66,1.2,Variable,3.5,-,0.01,Snow,Light Snow,0,2013-03-19 23:10:00
7:19 PM,28.4,26.6,93,29.66,1.0,Variable,4.6,-,0.01,Snow,Light Snow,0,2013-03-19 23:19:00
7:52 PM,28.0,26.1,92,29.71,1.0,Variable,3.5,-,0.02,Snow,Light Snow,0,2013-03-19 23:52:00
8:09 PM,28.4,26.6,93,29.66,1.2,North,4.6,-,0.01,Snow,Light Snow,10,2013-03-20 00:09:00
8:22 PM,28.4,26.6,93,29.66,2.0,Variable,3.5,-,0.01,Snow,Light Snow,0,2013-03-20 00:22:00
8:34 PM,26.6,24.8,93,29.66,3.0,North,4.6,-,0.01,Snow,Light Snow,350,2013-03-20 00:34:00
8:52 PM,27.0,25.0,92,29.73,6.0,Variable,3.5,-,0.01,Snow,Light Snow,0,2013-03-20 00:52:00
9:08 PM,26.6,24.8,93,29.69,1.8,NW,4.6,-,0.00,Snow,Light Snow,320,2013-03-20 01:08:00
9:20 PM,26.6,24.8,93,29.70,1.2,Calm,Calm,-,0.01,Snow,Light Snow,0,2013-03-20 01:20:00
9:25 PM,26.6,24.8,93,29.69,1.5,North,3.5,-,0.01,Snow,Light Snow,350,2013-03-20 01:25:00
9:47 PM,26.6,23.0,86,29.69,1.8,Variable,3.5,-,0.02,Snow,Light Snow,0,2013-03-20 01:47:00
9:52 PM,26.1,23.0,88,29.74,1.8,Variable,3.5,-,0.02,Snow,Light Snow,0,2013-03-20 01:52:00
10:12 PM,24.8,23.0,93,29.69,2.5,North,3.5,-,0.00,Snow,Light Snow,350,2013-03-20 02:12:00
10:18 PM,24.8,23.0,93,29.69,4.0,North,3.5,-,0.00,Snow,Light Snow,350,2013-03-20 02:18:00
10:52 PM,25.0,21.9,88,29.73,10.0,Variable,3.5,-,0.00,,Overcast,0,2013-03-20 02:52:00
11:52 PM,24.1,21.0,88,29.74,10.0,Calm,Calm,-,N/A,,Overcast,0,2013-03-20 03:52:00